Regional Weather Roundup
Issued by NWS

Home | Current Version | Previous Version | Graphics & Text | Print | Product List | Glossary On
Versions: 1 2 3 4 5 6 7 8 9 10 11 12 13 14 15 16 17 18 19 20 21 22 23 24 25 26 27
000
ASUS45 KCYS 231910
RWRWY

WYOMING REGIONAL WEATHER ROUNDUP
NATIONAL WEATHER SERVICE CHEYENNE WY
100 PM MDT SUN JUL 23 2017

NOTE:  "FAIR" INDICATES FEW OR NO CLOUDS BELOW 12,000 FEET
WITH NO SIGNIFICANT WEATHER AND/OR OBSTRUCTIONS TO VISIBILITY.

WYZ001-232000-
YELLOWSTONE NATIONAL PARK

CITY           SKY/WX    TMP DP  RH WIND       PRES   REMARKS
LK YELLOWSTONE   N/A     66  46  48 CALM      30.38S
W YELLOWSTONE  NOT AVBL

$$
WYZ002>013-054>058-071-098>099-232000-
NORTHERN WYOMING

CITY           SKY/WX    TMP DP  RH WIND       PRES   REMARKS
JACKSON        MOSUNNY   68  45  42 S3        30.29F
CODY           FAIR      86  34  15 E9        30.12F
GREYBULL       FAIR      91  32  12 SE6       30.03F
WORLAND        FAIR      89  41  18 W7        30.04F
SHERIDAN       FAIR      89  38  16 E5        30.06F
BUFFALO        FAIR      88  36  15 S6        30.13F
GILLETTE       FAIR      90  39  16 VRB5      30.09F
HULETT         FAIR      86  45  23 NE5       30.11F
NEWCASTLE      FAIR      88  36  15 S10       30.11F

$$
WYZ014>020-022>026-101>103-232000-
CENTRAL WYOMING

CITY           SKY/WX    TMP DP  RH WIND       PRES   REMARKS
BIG PINEY      FAIR      79  36  21 VRB6      30.30F
PINEDALE       FAIR      81  25  12 N13G20    30.32S
DUBOIS         FAIR      79  25  13 W6G18     30.28S
LANDER         FAIR      84  36  18 E6        30.17F
RIVERTON       FAIR      84  33  16 VRB5      30.15F
CASPER         FAIR      90  34  13 S8        30.14F
DOUGLAS        FAIR      89  41  18 VRB6      30.14F

$$
WYZ021-027>030-104>119-232000-
SOUTHERN WYOMING

CITY           SKY/WX    TMP DP  RH WIND       PRES   REMARKS
EVANSTON       FAIR      83  32  16 NW13G20   30.31S
KEMMERER         N/A     82  27  13 W8G22     30.32F
FORT BRIDGER   FAIR      84  25  11 CALM      30.32F
ROCK SPRINGS   FAIR      86  25  11 W10       30.26F
RAWLINS        FAIR      86  26  11 VRB3      30.26F
SARATOGA       FAIR      86  27  11 CALM      30.29F
LARAMIE        FAIR      84  32  15 SE8       30.30F
CHEYENNE       PTSUNNY   88  42  20 S13G18    30.24F
TORRINGTON     FAIR      88  56  33 SE9       30.10F
PINE BLUFFS    FAIR      90  37  15 S9        30.18F

$$




USA.gov is the U.S. government's official web portal to all federal, state and local government web resources and services.